Regional Weather Roundup
Issued by NWS State College, PA

Home | Current Version | Previous Version | Text Only | Print | Product List | Glossary On
Versions: 1 2 3 4 5 6 7 8 9 10 11 12 13 14 15 16 17 18 19 20 21 22 23 24 25 26 27 28 29 30 31 32 33 34 35 36 37 38 39 40 41 42 43 44 45 46 47 48 49 50
000
ASUS41 KCTP 201410
RWRCTP

REGIONAL WEATHER ROUNDUP
NATIONAL WEATHER SERVICE STATE COLLEGE PA
900 AM EST TUE FEB 20 2018

Note: "fair" indicates few or no clouds below 12,000 feet with no
significant weather and/or obstructions to visibility.

* = STATION THAT DOES NOT REPORT PRECIPITATION /E.G. RAIN...SNOW...ETC/
    THUNDER OR FOG.

PAZ002>004-007>009-013>016-020>023-029>032-201500-
WESTERN PENNSYLVANIA

CITY           SKY/WX    TMP DP  RH WIND       PRES   REMARKS
ERIE           CLOUDY    65  54  67 S18G28    30.09R
MEADVILLE      CLOUDY    61  55  81 SW17G25   30.15R
FRANKLIN*      CLOUDY    61  53  75 MISG        N/A
NEW CASTLE     CLOUDY    63  55  75 S8G16     30.19R
BEAVER COUNTY  PTSUNNY   63  52  67 S13       30.20R
BUTLER*        FAIR      62  53  72 S10       30.21R
PITTSBURGH INT CLOUDY    65  53  65 SW14      30.21R
PITTSBURGH     FAIR      62  50  64 S12       30.23R
INDIANA*       SUNNY     64  54  68 SW13      30.27S
LATROBE        MOSUNNY   63  52  67 SW20      30.26R
WASHINGTON CO* FAIR      67  53  61 S13G20    30.26R
$$

PAZ004>006-010>012-017>019-024>028-033>037-041-042-045-046-049>053-201500-
CENTRAL PENNSYLVANIA

CITY           SKY/WX    TMP DP  RH WIND       PRES   REMARKS
BRADFORD       PTSUNNY   58  53  84 SW8G20    30.18R
DUBOIS         PTSUNNY   60  51  72 SW13      30.21R
CLEARFIELD     PTSUNNY   40  39  97 CALM      30.24S FOG
JOHNSTOWN      CLOUDY    60  51  72 SW13      30.27R
ALTOONA        FAIR      49  47  93 W3        30.29R
STATE COLLEGE  MOSUNNY   37  37 100 CALM      30.28R
WILLIAMSPORT   CLOUDY    45  44  97 E9        30.29F FOG
SELINSGROVE    FOG       44  44 100 VRB3      30.32S VSB 1/2
FT INDIANTOWN  FOG       44  44 100 CALM      30.35R VSB 1/8
CAPITAL CITY   FOG       46  46 100 CALM      30.35R VSB 1/4
HARRISBURG     FOG       43  42  97 CALM      30.35R VSB<1/4
YORK           CLOUDY    52  51  97 SW6       30.35R
$$

PAZ038>040-043-044-047-048-054-055-060>062-067>071-201500-
EASTERN PENNSYLVANIA

CITY           SKY/WX    TMP DP  RH WIND       PRES   REMARKS
SCRANTON       FOG       45  45 100 SW6       30.30R VSB 1/2
MOUNT POCONO   PTSUNNY   46  46 100 W10       30.30R
ALLENTOWN      FOG       41  39  93 CALM      30.35R VSB 1/4
QUAKERTOWN*    FOG       48  48 100 SW5       30.35R VSB 1/4
READING        FOG       42  42 100 CALM      30.34S VSB 1/8
LANCASTER      FOG       49  49 100 CALM      30.35R VSB 1/4
COATESVILLE    FOG       50 N/A N/A VRB7      30.37R VSB<1/4
POTTSTOWN      CLOUDY    49  49 100 CALM      30.36S FOG
BLUE BELL      CLOUDY    50  50 100 SW3       30.37R
DOYLESTOWN     CLOUDY    50  50 100 SW7       30.34R
WILLOW GROVE   NOT AVBL
NORTH PHILA    CLOUDY    55  52  89 SW10      30.37S FOG
PHILADELPHIA   DRIZZLE   52  52 100 SW14      30.37S FOG
$$



USA.gov is the U.S. government's official web portal to all federal, state and local government web resources and services.